TimeCST,TemperatureF,Dew PointF,Humidity,Sea Level PressureIn,VisibilityMPH,Wind Direction,Wind SpeedMPH,Gust SpeedMPH,PrecipitationIn,Events,Conditions,WindDirDegrees,DateUTC
12:15 AM,28.4,26.6,93,30.47,7.0,Calm,Calm,-,N/A,,Clear,0,2012-11-13 06:15:00
12:35 AM,28.4,26.6,93,30.47,9.0,Calm,Calm,-,N/A,,Clear,0,2012-11-13 06:35:00
12:55 AM,28.4,26.6,93,30.47,10.0,Calm,Calm,-,N/A,,Clear,0,2012-11-13 06:55:00
1:15 AM,28.4,26.6,93,30.47,8.0,Calm,Calm,-,N/A,,Clear,0,2012-11-13 07:15:00
1:35 AM,28.4,26.6,93,30.47,9.0,Calm,Calm,-,N/A,,Clear,0,2012-11-13 07:35:00
1:55 AM,28.4,26.6,93,30.47,8.0,Calm,Calm,-,N/A,,Clear,0,2012-11-13 07:55:00
2:15 AM,28.4,26.6,93,30.47,8.0,Calm,Calm,-,N/A,,Clear,0,2012-11-13 08:15:00
2:55 AM,26.6,26.6,100,30.48,10.0,Calm,Calm,-,N/A,,Clear,0,2012-11-13 08:55:00
3:15 AM,26.6,26.6,100,30.48,9.0,Calm,Calm,-,N/A,,Clear,0,2012-11-13 09:15:00
3:35 AM,26.6,26.6,100,30.48,9.0,Calm,Calm,-,N/A,,Clear,0,2012-11-13 09:35:00
3:55 AM,26.6,24.8,93,30.48,9.0,Calm,Calm,-,N/A,,Clear,0,2012-11-13 09:55:00
4:15 AM,26.6,24.8,93,30.48,9.0,Calm,Calm,-,N/A,,Clear,0,2012-11-13 10:15:00
4:55 AM,26.6,24.8,93,30.49,9.0,Calm,Calm,-,N/A,,Clear,0,2012-11-13 10:55:00
5:15 AM,26.6,24.8,93,30.50,10.0,Calm,Calm,-,N/A,,Clear,0,2012-11-13 11:15:00
5:35 AM,24.8,24.8,100,30.50,9.0,Calm,Calm,-,N/A,,Clear,0,2012-11-13 11:35:00
5:55 AM,24.8,24.8,100,30.50,10.0,Calm,Calm,-,N/A,,Clear,0,2012-11-13 11:55:00
6:35 AM,24.8,24.8,100,30.52,9.0,Calm,Calm,-,N/A,,Clear,0,2012-11-13 12:35:00
6:55 AM,24.8,24.8,100,30.52,8.0,Calm,Calm,-,N/A,,Clear,0,2012-11-13 12:55:00
7:15 AM,26.6,24.8,93,30.52,9.0,North,-9999.0,-,N/A,,Clear,0,2012-11-13 13:15:00
7:35 AM,28.4,26.6,93,30.53,9.0,North,-9999.0,-,N/A,,Clear,0,2012-11-13 13:35:00
9:15 AM,41.0,28.4,61,30.53,9.0,NE,6.9,-,N/A,,Clear,40,2012-11-13 15:15:00
9:35 AM,44.6,26.6,49,30.52,9.0,ENE,6.9,-,N/A,,Clear,70,2012-11-13 15:35:00
9:55 AM,46.4,24.8,43,30.53,9.0,ENE,11.5,-,N/A,,Clear,70,2012-11-13 15:55:00
10:15 AM,46.4,24.8,43,30.52,10.0,NE,9.2,-,N/A,,Clear,40,2012-11-13 16:15:00
10:35 AM,46.4,24.8,43,30.51,9.0,East,8.1,-,N/A,,Clear,80,2012-11-13 16:35:00
10:55 AM,48.2,24.8,40,30.50,9.0,ENE,5.8,-,N/A,,Clear,70,2012-11-13 16:55:00
11:15 AM,48.2,24.8,40,30.50,9.0,NE,9.2,-,N/A,,Clear,50,2012-11-13 17:15:00
11:35 AM,48.2,23.0,37,30.48,9.0,North,8.1,-,N/A,,Clear,10,2012-11-13 17:35:00
11:55 AM,50.0,24.8,37,30.47,9.0,NNE,6.9,-,N/A,,Clear,30,2012-11-13 17:55:00
12:15 PM,50.0,23.0,35,30.46,9.0,East,5.8,-,N/A,,Unknown,100,2012-11-13 18:15:00
12:55 PM,51.8,23.0,33,30.44,8.0,NE,3.5,-,N/A,,Clear,50,2012-11-13 18:55:00
1:15 PM,51.8,21.2,30,30.42,9.0,NE,8.1,-,N/A,,Clear,40,2012-11-13 19:15:00
1:35 PM,53.6,21.2,28,30.41,10.0,NE,6.9,-,N/A,,Clear,40,2012-11-13 19:35:00
1:55 PM,53.6,21.2,28,30.41,10.0,NE,9.2,-,N/A,,Clear,40,2012-11-13 19:55:00
2:15 PM,53.6,23.0,30,30.40,10.0,NE,9.2,-,N/A,,Clear,50,2012-11-13 20:15:00
2:55 PM,53.6,23.0,30,30.39,9.0,NE,8.1,-,N/A,,Clear,40,2012-11-13 20:55:00
3:15 PM,51.8,23.0,33,30.39,9.0,NE,5.8,-,N/A,,Clear,50,2012-11-13 21:15:00
3:35 PM,51.8,23.0,33,30.39,9.0,North,6.9,-,N/A,,Clear,360,2012-11-13 21:35:00
3:55 PM,50.0,23.0,35,30.40,9.0,NE,4.6,-,N/A,,Clear,40,2012-11-13 21:55:00
4:15 PM,50.0,23.0,35,30.40,9.0,NNE,3.5,-,N/A,,Clear,30,2012-11-13 22:15:00
4:35 PM,48.2,23.0,37,30.39,9.0,NE,3.5,-,N/A,,Clear,40,2012-11-13 22:35:00
4:55 PM,46.4,24.8,43,30.39,9.0,Calm,Calm,-,N/A,,Clear,0,2012-11-13 22:55:00
5:15 PM,46.4,23.0,40,30.39,10.0,Calm,Calm,-,N/A,,Clear,0,2012-11-13 23:15:00
5:35 PM,41.0,28.4,61,30.39,10.0,Calm,Calm,-,N/A,,Clear,0,2012-11-13 23:35:00
5:55 PM,39.2,28.4,65,30.39,10.0,Calm,Calm,-,N/A,,Clear,0,2012-11-13 23:55:00
6:15 PM,39.2,28.4,65,30.39,10.0,North,3.5,-,N/A,,Clear,10,2012-11-14 00:15:00
6:35 PM,37.4,28.4,70,30.40,10.0,Calm,Calm,-,N/A,,Clear,0,2012-11-14 00:35:00
6:55 PM,37.4,28.4,70,30.41,10.0,Calm,Calm,-,N/A,,Clear,0,2012-11-14 00:55:00
7:15 PM,35.6,28.4,75,30.41,10.0,Calm,Calm,-,N/A,,Clear,0,2012-11-14 01:15:00
7:35 PM,33.8,28.4,81,30.41,10.0,Calm,Calm,-,N/A,,Unknown,0,2012-11-14 01:35:00
7:55 PM,33.8,28.4,81,30.41,10.0,Calm,Calm,-,N/A,,Clear,0,2012-11-14 01:55:00
8:15 PM,32.0,28.4,87,30.41,10.0,Calm,Calm,-,N/A,,Clear,0,2012-11-14 02:15:00
8:35 PM,33.8,28.4,81,30.41,10.0,Calm,Calm,-,N/A,,Clear,0,2012-11-14 02:35:00
8:55 PM,32.0,28.4,87,30.41,10.0,NE,3.5,-,N/A,,Clear,50,2012-11-14 02:55:00
9:15 PM,32.0,28.4,87,30.41,10.0,Calm,Calm,-,N/A,,Clear,0,2012-11-14 03:15:00
9:55 PM,32.0,28.4,87,30.41,10.0,Calm,Calm,-,N/A,,Clear,0,2012-11-14 03:55:00
10:15 PM,32.0,28.4,87,30.41,10.0,Calm,Calm,-,N/A,,Clear,0,2012-11-14 04:15:00
10:55 PM,32.0,28.4,87,30.41,10.0,Calm,Calm,-,N/A,,Clear,0,2012-11-14 04:55:00
11:15 PM,32.0,28.4,87,30.41,10.0,Calm,Calm,-,N/A,,Clear,0,2012-11-14 05:15:00
11:35 PM,32.0,28.4,87,30.41,10.0,Calm,Calm,-,N/A,,Clear,0,2012-11-14 05:35:00
11:55 PM,32.0,28.4,87,30.41,10.0,Calm,Calm,-,N/A,,Clear,0,2012-11-14 05:55:00